Location: Meanaryar
(48.4161°N, 4.7315°W)
Time: 14:02:32
(UTC+00:00)

Cosmos 1092 Rocket - Pass Details

Date: 17 January 2021
Orbit: 954 x 995 km, 83.0° (Epoch: 01 March)

Event Time Altitude Azimuth Distance (km) Brightness Sun altitude
Rises 05:33:33 0° 357° (N) 3,646 6.9 -24.4°
Reaches altitude 10° 05:36:25 10° 8° (N) 2,695 6.3 -23.9°
Maximum altitude 05:41:45 30° 68° (ENE) 1,642 5.7 -23.0°
Drops below altitude 10° 05:47:04 10° 129° (SE) 2,685 7.1 -22.2°
Sets 05:49:54 0° 140° (SE) 3,631 7.7 -21.7°
